Regional Weather Roundup
Issued by NWS

Home | Current Version | Previous Version | Text Only | Print | Product List | Glossary On
Versions: 1 2 3 4 5 6 7 8 9 10 11 12 13 14 15 16 17 18 19 20 21 22 23 24 25 26 27 28 29 30 31 32 33 34 35 36 37 38 39 40 41 42 43 44 45 46 47 48 49 50
000
ASUS45 KBOU 171007
RWRCO

WEATHER ROUNDUP FOR COLORADO
NATIONAL WEATHER SERVICE DENVER/BOULDER CO
400 AM MDT FRI APR 17 2015

NOTE: "FAIR" INDICATES FEW OR NO CLOUDS BELOW 12000 FEET WITH NO
SIGNIFICANT WEATHER AND/OR OBSTRUCTIONS TO VISIBILITY.

COZ001>005-013-030-031-171100-
...NORTHWEST COLORADO...

CITY           SKY/WX    TMP DP  RH WIND       PRES   REMARKS
CRAIG          LGT SNOW  34  32  93 SW3       30.05S FOG
HAYDEN         CLOUDY    32  28  86 NW6       30.03F WCI  26
MEEKER         LGT SNOW  33  32  96 MISG      30.02F VSB 1
MOUNT WERNER   NOT AVBL
STEAMBOAT SPGS CLOUDY    36  29  76 W6        30.02S
WALDEN         CLOUDY    30  27  86 N8        30.07S WCI  23
$$

COZ006>008-011-171100-
...WEST CENTRAL VALLEYS...

CITY           SKY/WX    TMP DP  RH WIND       PRES   REMARKS
GRAND JUNCTION CLOUDY    37  36  96 N5        30.00S
MONTROSE       LGT SNOW  32  32 100 CALM      30.04R VSB 1
EAGLE          CLOUDY    34  34 100 N3        30.00F
RIFLE          CLOUDY    39  35  86 CALM      29.98F
DELTA          LGT SNOW  34  33  96 CALM      30.03R
NUCLA          LGT SNOW  32  32 100 CALM      30.08S
$$

COZ017>023-064>068-171100-
...SOUTHWEST COLORADO...

CITY           SKY/WX    TMP DP  RH WIND       PRES   REMARKS
DURANGO        PTCLDY    28   9  44 CALM      30.03R
CORTEZ         PTCLDY    28  16  60 CALM      30.05S
PAGOSA SPRINGS PTCLDY    23  13  65 CALM      30.03S
TELLURIDE      CLOUDY    24  23  97 CALM      30.01F
WOLF CREEK PAS MOCLDY     9   9 100 SW15      30.01S WCI  -8
$$

COZ009-010-012-014-032>034-037-058>063-171100-
...CENTRAL COLORADO...

CITY           SKY/WX    TMP DP  RH WIND       PRES   REMARKS
ASPEN          LGT SNOW  30  30 100 CALM      29.96F VSB 1
BUENA VISTA    CLOUDY    30  28  92 CALM      30.00F
COPPER MTN     LGT SNOW  25  19  80 E21G28    30.03R VSB 3/4 WCI  10
BERTHOUD PASS  SNOW      18  10  73 MISG      30.09R VSB 1/4
COTTONWOOD PAS SNOW      30  28  93 E8        30.00F VSB 1/2 WCI  23
GUNNISON       CLOUDY    28  25  86 S5        30.02S VSB 1   WCI  23
KREMMLING      LGT SNOW  32  30  93 CALM      30.04F
LEADVILLE      SNOW      24  23  96 CALM      29.98F VSB 1/2
MONARCH PASS   CLOUDY    19  18  93 MISG      30.07F
SALIDA         NOT AVBL
SUNLIGHT       LGT SNOW N/A N/A N/A NE5       30.03S VSB 3/4
WILKERSON PASS CLOUDY   N/A N/A N/A E16G29    30.04F
$$

COZ069>075-171100-
...SAN LUIS VALLEY/SANGRE DE CRISTO MOUNTAINS...

CITY           SKY/WX    TMP DP  RH WIND       PRES   REMARKS
ALAMOSA        CLOUDY    30  23  75 S8        29.99R WCI  22
LA VETA PASS   LGT SNOW  23  21  93 MISG      30.00S VSB 3/4
SAGUACHE       LGT SNOW  30  28  93 CALM      30.00S
$$

COZ035-036-038>040-171100-
...NORTHERN COLORADO FRONT RANGE...

CITY           SKY/WX    TMP DP  RH WIND       PRES   REMARKS
DENVER INTL AP LGT RAIN  34  33  96 SW13      30.04F VSB 1/4 WCI  25
DMNS CITY PARK   N/A     34  34  98 W3        30.06R
AURORA         LGT SNOW  33  33 100 SW7       30.06F FOG     WCI  26
FRONT RANGE AP DRIZZLE   36  34  93 SW9       30.06S
ERIE MUNI ARPT RAIN      37  37 100 N9        30.07S
BOULDER MUN AP RAIN      36  36 100 N3        30.07F
CENTENNIAL     LGT SNOW  32  32 100 W7        30.06S VSB 1   WCI  26
BROOMFIELD     RAIN      34  34 100 NW17      30.05F WCI  23
FORT COLLINS   CLOUDY    37  36  93 N15       30.09S
LONGMONT       LGT SNOW  41  39  93 N13       30.09S
$$

COZ041-046-047-076>085-087-088-171100-
...PIKES PEAK/PALMER DIVIDE AND SOUTHERN FOOTHILLS...

CITY           SKY/WX    TMP DP  RH WIND       PRES   REMARKS
COLO. SPRINGS  LGT SNOW  34  32  92 NW14      30.03F FOG     WCI  25
A. F. ACADEMY  LGT SNOW  33  32  97 NW10      30.03F FOG     WCI  24
ELLICOTT       LGT RAIN N/A N/A N/A E15       30.00F
FALCON         FLURRIES  33  32  96 N12       30.03F WCI  24
FORT CARSON    DRIZZLE   35  35  99 N17G25    30.00F WCI  24
LIMON          MOCLDY    41  39  93 E10       30.04S
MONUMENT HILL  LGT SNOW  30  30 100 NW8       30.04F WCI  23
TRINIDAD       CLOUDY    36  35  96 MISG      29.99F FOG
$$

COZ042>045-048>051-090-091-171100-
...NORTHEAST COLORADO...

CITY           SKY/WX    TMP DP  RH WIND       PRES   REMARKS
GREELEY ARPT   CLOUDY    41  36  81 NE17G24   30.06F
AKRON          CLOUDY    46  46 100 SE9       30.05F
BURLINGTON     CLOUDY    47  44  90 NE15      30.01F
WRAY           CLOUDY    49  49 100 NE7       30.03F
STERLING       RAIN      46  46 100 NE8       30.03F
HOLYOKE        LGT RAIN  52  48  87 NE8       30.04F
FORT MORGAN    DRIZZLE   45  43  95 N7        30.05F
$$

COZ086-089-092>099-171100-
...SOUTHEAST COLORADO...

CITY           SKY/WX    TMP DP  RH WIND       PRES   REMARKS
PUEBLO         LGT RAIN  41  38  89 N8        29.99F
LA JUNTA       LGT RAIN  46  45  96 SW8       29.98R FOG
LAMAR          CLOUDY    51  50  96 E12       29.95S
SPRINGFIELD      N/A     46  46 100 N7        29.94F
$$



USA.gov is the U.S. government's official web portal to all federal, state and local government web resources and services.